Tracking 31027 objects as of 19-Jul-2025
HD Live streaming from Space Station
objects crossing your sky now

GGSE 5

Track GGSE 5 now!
10-day predictions
GGSE 5 is classified as:


NORAD ID: 2834
Int'l Code: 1967-053D
Perigee: 907.0 km
Apogee: 921.7 km
Inclination: 70.0 °
Period: 103.1 minutes
Semi major axis: 7285 km
RCS: 0.7606 m2 (medium)
Launch date: May 31, 1967
Source: United States (US)
Launch site: AIR FORCE WESTERN TEST RANGE (AFWTR)
Your satellite tracking list
CZ-2C R/B
Track 1 satellite(s)




NASA's NSSDC Master Catalog

Two Line Element Set (TLE):
1 02834U 67053D   25199.52615176  .00000003  00000-0  40701-4 0  9996
2 02834  69.9730 127.4752 0010115 279.2608  80.7353 13.96134512959568
Source of the keplerian elements: AFSPC